Time,TemperatureF,DewpointF,PressureIn,WindDirection,WindDirectionDegrees,WindSpeedMPH,WindSpeedGustMPH,Humidity,HourlyPrecipIn,Conditions,Clouds,dailyrainin,SolarRadiationWatts/m^2,SoftwareType,DateUTC
2013-04-20 00:00:00,58.5,57.9,29.77,South,180,47.0,47.0,98,0.00,,,0.02,0.00,VWS V14.01,2013-04-20 04:00:00,
2013-04-20 00:01:00,56.6,56.0,29.76,SSE,164,32.0,38.0,98,0.02,,---,0.04,0.00,VWS V14.01,2013-04-20 04:01:00,
2013-04-20 00:06:00,56.4,55.8,29.75,SSE,162,29.0,37.0,98,0.02,,---,0.00,0.00,VWS V14.01,2013-04-20 04:06:00,
2013-04-20 00:11:00,56.6,56.0,29.75,South,184,32.0,37.0,98,0.02,,---,0.00,0.00,VWS V14.01,2013-04-20 04:11:00,
2013-04-20 00:15:00,56.9,56.3,29.77,South,169,33.0,47.0,98,0.02,,,0.04,0.00,VWS V14.01,2013-04-20 04:15:00,
2013-04-20 00:16:00,57.1,56.5,29.75,South,184,36.0,43.0,98,0.02,,---,0.00,0.00,VWS V14.01,2013-04-20 04:16:00,
2013-04-20 00:21:00,57.1,56.5,29.75,South,175,35.0,46.0,98,0.00,,---,0.00,0.00,VWS V14.01,2013-04-20 04:21:00,
2013-04-20 00:26:00,57.2,56.6,29.75,South,182,44.0,46.0,98,0.00,,---,0.00,0.00,VWS V14.01,2013-04-20 04:26:00,
2013-04-20 00:30:00,56.3,55.7,29.76,SSE,168,25.0,39.0,98,0.02,,,0.04,0.00,VWS V14.01,2013-04-20 04:30:00,
2013-04-20 00:31:00,56.3,55.8,29.75,South,175,35.0,46.0,98,0.00,,---,0.00,0.00,VWS V14.01,2013-04-20 04:31:00,
2013-04-20 00:36:00,56.0,55.5,29.76,South,190,37.0,38.0,98,0.00,,---,0.00,0.00,VWS V14.01,2013-04-20 04:36:00,
2013-04-20 00:41:00,56.1,55.5,29.76,South,186,32.0,40.0,98,0.00,,---,0.00,0.00,VWS V14.01,2013-04-20 04:41:00,
2013-04-20 00:45:00,56.9,56.3,29.76,South,172,34.0,44.0,98,0.02,,,0.04,0.00,VWS V14.01,2013-04-20 04:45:00,
2013-04-20 00:46:00,55.9,55.3,29.76,South,184,38.0,40.0,98,0.00,,---,0.00,0.00,VWS V14.01,2013-04-20 04:46:00,
2013-04-20 00:51:00,55.7,55.2,29.76,South,189,30.0,40.0,98,0.00,,---,0.00,0.00,VWS V14.01,2013-04-20 04:51:00,
2013-04-20 00:56:00,55.7,55.2,29.76,South,187,27.0,40.0,98,0.00,,---,0.00,0.00,VWS V14.01,2013-04-20 04:56:00,
2013-04-20 01:00:00,56.6,56.0,29.76,South,173,27.0,38.0,98,0.02,,,0.04,0.00,VWS V14.01,2013-04-20 05:00:00,
2013-04-20 01:01:00,55.6,55.0,29.76,South,187,37.0,40.0,98,0.00,,---,0.00,0.00,VWS V14.01,2013-04-20 05:01:00,
2013-04-20 01:06:00,55.5,55.0,29.76,South,188,27.0,39.0,98,0.00,,---,0.00,0.00,VWS V14.01,2013-04-20 05:06:00,
2013-04-20 01:11:00,55.3,54.8,29.75,South,186,34.0,39.0,98,0.00,,---,0.00,0.00,VWS V14.01,2013-04-20 05:11:00,
2013-04-20 01:15:00,57.1,56.5,29.75,South,190,39.0,43.0,98,0.02,,,0.00,0.00,VWS V14.01,2013-04-20 05:15:00,
2013-04-20 01:16:00,55.3,54.8,29.75,South,188,33.0,39.0,98,0.00,,---,0.00,0.00,VWS V14.01,2013-04-20 05:16:00,
2013-04-20 01:21:00,55.3,54.8,29.75,SSW,192,38.0,38.0,98,0.00,,---,0.00,0.00,VWS V14.01,2013-04-20 05:21:00,
2013-04-20 01:26:00,55.1,54.5,29.75,South,188,34.0,38.0,98,0.00,,---,0.00,0.00,VWS V14.01,2013-04-20 05:26:00,
2013-04-20 01:30:00,56.3,55.7,29.76,South,185,32.0,46.0,98,0.00,,,0.00,0.00,VWS V14.01,2013-04-20 05:30:00,
2013-04-20 01:31:00,55.1,54.5,29.75,South,184,33.0,38.0,98,0.00,,---,0.00,0.00,VWS V14.01,2013-04-20 05:31:00,
2013-04-20 01:36:00,54.8,54.2,29.75,South,190,35.0,36.0,98,0.00,,---,0.00,0.00,VWS V14.01,2013-04-20 05:36:00,
2013-04-20 01:41:00,54.8,54.2,29.75,SSW,197,32.0,37.0,98,0.00,,---,0.00,0.00,VWS V14.01,2013-04-20 05:41:00,
2013-04-20 01:45:00,55.9,55.3,29.76,South,186,35.0,40.0,98,0.00,,,0.00,0.00,VWS V14.01,2013-04-20 05:45:00,
2013-04-20 01:46:00,54.2,53.7,29.76,SW,219,20.0,37.0,98,0.02,,---,0.02,0.00,VWS V14.01,2013-04-20 05:46:00,
2013-04-20 01:51:00,53.4,52.8,29.76,SW,234,23.0,24.0,98,0.02,,---,0.02,0.00,VWS V14.01,2013-04-20 05:51:00,
2013-04-20 01:57:00,53.3,53.0,29.75,SW,219,24.0,-999.0,98,-99.99,,,0.02,0,weatherlink.com 1.10,2013-04-20 05:57:00,
2013-04-20 02:00:00,55.6,55.0,29.76,South,182,30.0,40.0,98,0.00,,,0.00,0.00,VWS V14.01,2013-04-20 06:00:00,
2013-04-20 02:02:00,53.0,52.5,29.75,SSW,211,26.0,26.0,98,0.04,,---,0.04,0.00,VWS V14.01,2013-04-20 06:02:00,
2013-04-20 02:07:00,52.8,52.2,29.75,SSW,209,23.0,28.0,98,0.04,,---,0.04,0.00,VWS V14.01,2013-04-20 06:07:00,
2013-04-20 02:12:00,52.5,52.0,29.74,SSW,202,24.0,28.0,98,0.04,,---,0.04,0.00,VWS V14.01,2013-04-20 06:12:00,
2013-04-20 02:15:00,55.4,54.8,29.75,South,182,31.0,39.0,98,0.00,,,0.00,0.00,VWS V14.01,2013-04-20 06:15:00,
2013-04-20 02:17:00,52.2,51.7,29.74,SSW,211,22.0,24.0,98,0.04,,---,0.04,0.00,VWS V14.01,2013-04-20 06:17:00,
2013-04-20 02:22:00,52.1,51.5,29.73,SSW,202,18.0,25.0,98,0.04,,---,0.04,0.00,VWS V14.01,2013-04-20 06:22:00,
2013-04-20 02:27:00,52.1,51.5,29.73,SSW,202,23.0,25.0,98,0.04,,---,0.04,0.00,VWS V14.01,2013-04-20 06:27:00,
2013-04-20 02:30:00,55.0,54.5,29.75,South,188,31.0,38.0,98,0.00,,,0.00,0.00,VWS V14.01,2013-04-20 06:30:00,
2013-04-20 02:32:00,52.1,51.5,29.73,SSW,198,18.0,21.0,98,0.04,,---,0.04,0.00,VWS V14.01,2013-04-20 06:32:00,
2013-04-20 02:37:00,52.1,51.5,29.72,SSW,199,21.0,22.0,98,0.04,,---,0.04,0.00,VWS V14.01,2013-04-20 06:37:00,
2013-04-20 02:42:00,52.3,51.8,29.72,South,188,19.0,23.0,98,0.04,,---,0.04,0.00,VWS V14.01,2013-04-20 06:42:00,
2013-04-20 02:45:00,54.2,53.7,29.76,SW,232,18.0,37.0,98,0.02,,,0.02,0.00,VWS V14.01,2013-04-20 06:45:00,
2013-04-20 02:47:00,52.7,52.2,29.72,SSW,194,24.0,25.0,98,0.02,,---,0.04,0.00,VWS V14.01,2013-04-20 06:47:00,
2013-04-20 02:52:00,53.2,52.7,29.72,South,188,27.0,27.0,98,0.02,,---,0.04,0.00,VWS V14.01,2013-04-20 06:52:00,
2013-04-20 02:57:00,53.3,52.8,29.71,South,186,29.0,29.0,98,0.04,,---,0.06,0.00,VWS V14.01,2013-04-20 06:57:00,
2013-04-20 03:00:00,53.0,52.5,29.75,SW,216,23.0,26.0,98,0.04,,,0.04,0.00,VWS V14.01,2013-04-20 07:00:00,
2013-04-20 03:02:00,53.1,52.5,29.71,South,182,25.0,30.0,98,0.02,,---,0.06,0.00,VWS V14.01,2013-04-20 07:02:00,
2013-04-20 03:07:00,53.0,52.5,29.71,South,181,27.0,31.0,98,0.04,,---,0.08,0.00,VWS V14.01,2013-04-20 07:07:00,
2013-04-20 03:12:00,53.3,52.8,29.70,SSW,193,25.0,31.0,98,0.04,,---,0.08,0.00,VWS V14.01,2013-04-20 07:12:00,
2013-04-20 03:15:00,52.3,51.8,29.74,SSW,198,23.0,28.0,98,0.04,,,0.04,0.00,VWS V14.01,2013-04-20 07:15:00,
2013-04-20 03:17:00,53.3,52.8,29.70,South,188,25.0,27.0,98,0.04,,---,0.08,0.00,VWS V14.01,2013-04-20 07:17:00,
2013-04-20 03:22:00,54.2,53.7,29.70,SSW,196,24.0,32.0,98,0.04,,---,0.08,0.00,VWS V14.01,2013-04-20 07:22:00,
2013-04-20 03:27:00,54.2,53.7,29.70,South,183,24.0,32.0,98,0.04,,---,0.08,0.00,VWS V14.01,2013-04-20 07:27:00,
2013-04-20 03:30:00,52.1,51.6,29.73,SSW,207,19.0,25.0,98,0.04,,,0.04,0.00,VWS V14.01,2013-04-20 07:30:00,
2013-04-20 03:32:00,54.3,53.8,29.70,South,191,29.0,32.0,98,0.04,,---,0.08,0.00,VWS V14.01,2013-04-20 07:32:00,
2013-04-20 03:37:00,54.1,53.5,29.70,South,190,32.0,32.0,98,0.04,,---,0.08,0.00,VWS V14.01,2013-04-20 07:37:00,
2013-04-20 03:42:00,54.0,53.5,29.71,South,188,31.0,33.0,98,0.04,,---,0.08,0.00,VWS V14.01,2013-04-20 07:42:00,
2013-04-20 03:45:00,52.6,52.0,29.71,SSW,194,24.0,26.0,98,0.04,,,0.04,0.00,VWS V14.01,2013-04-20 07:45:00,
2013-04-20 03:47:00,53.8,53.2,29.70,SSW,192,33.0,35.0,98,0.04,,---,0.08,0.00,VWS V14.01,2013-04-20 07:47:00,
2013-04-20 03:52:00,54.2,53.7,29.70,South,184,29.0,36.0,98,0.04,,---,0.08,0.00,VWS V14.01,2013-04-20 07:52:00,
2013-04-20 03:57:00,54.1,53.5,29.70,South,184,32.0,36.0,98,0.04,,---,0.08,0.00,VWS V14.01,2013-04-20 07:57:00,
2013-04-20 04:00:00,53.2,52.7,29.71,South,184,24.0,30.0,98,0.04,,,0.06,0.00,VWS V14.01,2013-04-20 08:00:00,
2013-04-20 04:02:00,53.9,53.3,29.70,South,189,36.0,36.0,98,0.04,,---,0.10,0.00,VWS V14.01,2013-04-20 08:02:00,
2013-04-20 04:07:00,53.5,53.0,29.71,South,180,29.0,36.0,98,0.04,,---,0.10,0.00,VWS V14.01,2013-04-20 08:07:00,
2013-04-20 04:12:00,53.4,52.8,29.70,South,184,32.0,38.0,98,0.04,,---,0.10,0.00,VWS V14.01,2013-04-20 08:12:00,
2013-04-20 04:15:00,53.3,52.8,29.70,South,190,24.0,31.0,98,0.04,,,0.08,0.00,VWS V14.01,2013-04-20 08:15:00,
2013-04-20 04:17:00,53.2,52.7,29.70,South,183,27.0,33.0,98,0.02,,---,0.10,0.00,VWS V14.01,2013-04-20 08:17:00,
2013-04-20 04:22:00,53.3,52.8,29.71,South,191,32.0,35.0,98,0.04,,---,0.12,0.00,VWS V14.01,2013-04-20 08:22:00,
2013-04-20 04:27:00,53.3,52.8,29.71,South,176,31.0,36.0,98,0.04,,---,0.12,0.00,VWS V14.01,2013-04-20 08:27:00,
2013-04-20 04:30:00,54.2,53.7,29.69,SSW,192,30.0,33.0,98,0.04,,,0.08,0.00,VWS V14.01,2013-04-20 08:30:00,
2013-04-20 04:32:00,53.4,52.8,29.70,South,190,27.0,34.0,98,0.04,,---,0.12,0.00,VWS V14.01,2013-04-20 08:32:00,
2013-04-20 04:37:00,53.3,52.8,29.70,SSW,194,32.0,34.0,98,0.04,,---,0.12,0.00,VWS V14.01,2013-04-20 08:37:00,
2013-04-20 04:42:00,53.5,53.0,29.70,SSW,196,29.0,35.0,98,0.06,,---,0.14,0.00,VWS V14.01,2013-04-20 08:42:00,
2013-04-20 04:45:00,53.8,53.2,29.71,South,190,32.0,33.0,98,0.04,,,0.08,0.00,VWS V14.01,2013-04-20 08:45:00,
2013-04-20 04:47:00,53.5,53.0,29.70,SSW,192,28.0,32.0,98,0.06,,---,0.14,0.00,VWS V14.01,2013-04-20 08:47:00,
2013-04-20 04:52:00,53.2,52.7,29.69,South,184,24.0,32.0,98,0.06,,---,0.14,0.00,VWS V14.01,2013-04-20 08:52:00,
2013-04-20 04:57:00,53.2,52.7,29.70,SSW,205,26.0,32.0,98,0.08,,---,0.16,0.00,VWS V14.01,2013-04-20 08:57:00,
2013-04-20 05:00:00,54.0,53.5,29.70,South,188,31.0,36.0,98,0.06,,,0.10,0.00,VWS V14.01,2013-04-20 09:00:00,
2013-04-20 05:02:00,52.9,52.3,29.71,SW,231,18.0,23.0,98,0.06,,---,0.16,0.00,VWS V14.01,2013-04-20 09:02:00,
2013-04-20 05:07:00,52.4,51.8,29.71,SW,226,29.0,31.0,98,0.06,,---,0.16,0.00,VWS V14.01,2013-04-20 09:07:00,
2013-04-20 05:12:00,52.0,51.5,29.72,SW,230,20.0,31.0,98,0.08,,---,0.18,0.00,VWS V14.01,2013-04-20 09:12:00,
2013-04-20 05:15:00,53.3,52.8,29.70,South,184,29.0,38.0,98,0.04,,,0.10,0.00,VWS V14.01,2013-04-20 09:15:00,
2013-04-20 05:17:00,52.2,51.7,29.72,SW,227,24.0,24.0,98,0.08,,---,0.18,0.00,VWS V14.01,2013-04-20 09:17:00,
2013-04-20 05:22:00,52.1,51.5,29.72,SW,230,21.0,24.0,98,0.08,,---,0.18,0.00,VWS V14.01,2013-04-20 09:22:00,
2013-04-20 05:27:00,52.0,51.5,29.71,SW,229,23.0,24.0,98,0.08,,---,0.18,0.00,VWS V14.01,2013-04-20 09:27:00,
2013-04-20 05:30:00,53.3,52.8,29.71,South,188,34.0,36.0,98,0.04,,,0.12,0.00,VWS V14.01,2013-04-20 09:30:00,
2013-04-20 05:32:00,52.0,51.5,29.72,SW,231,22.0,24.0,98,0.06,,---,0.18,0.00,VWS V14.01,2013-04-20 09:32:00,
2013-04-20 05:37:00,51.9,51.4,29.72,SW,219,21.0,25.0,98,0.06,,---,0.18,0.00,VWS V14.01,2013-04-20 09:37:00,
2013-04-20 05:42:00,51.7,51.2,29.72,SW,219,18.0,25.0,98,0.08,,---,0.20,0.00,VWS V14.01,2013-04-20 09:42:00,
2013-04-20 05:45:00,53.5,53.0,29.70,South,188,27.0,35.0,98,0.06,,,0.14,0.00,VWS V14.01,2013-04-20 09:45:00,
2013-04-20 05:47:00,51.4,50.9,29.72,SW,218,17.0,20.0,98,0.06,,---,0.20,0.00,VWS V14.01,2013-04-20 09:47:00,
2013-04-20 05:52:00,51.1,50.6,29.72,SSW,211,18.0,20.0,98,0.06,,---,0.20,0.00,VWS V14.01,2013-04-20 09:52:00,
2013-04-20 05:57:00,50.9,50.4,29.72,SSW,196,19.0,21.0,98,0.08,,---,0.22,0.00,VWS V14.01,2013-04-20 09:57:00,
2013-04-20 06:00:00,53.1,52.5,29.71,SW,232,23.0,32.0,98,0.08,,,0.16,0.00,VWS V14.01,2013-04-20 10:00:00,
2013-04-20 06:02:00,50.8,50.3,29.72,SSW,193,20.0,21.0,98,0.06,,---,0.22,0.00,VWS V14.01,2013-04-20 10:02:00,
2013-04-20 06:07:00,50.8,50.3,29.72,SSW,199,20.0,23.0,98,0.08,,---,0.24,0.00,VWS V14.01,2013-04-20 10:07:00,
2013-04-20 06:12:00,51.0,50.5,29.71,SSW,200,20.0,24.0,98,0.08,,---,0.24,0.00,VWS V14.01,2013-04-20 10:12:00,
2013-04-20 06:15:00,52.2,51.7,29.72,SW,232,23.0,31.0,98,0.08,,,0.18,0.00,VWS V14.01,2013-04-20 10:15:00,
2013-04-20 06:17:00,51.1,50.6,29.71,SSW,212,22.0,22.0,98,0.08,,---,0.26,0.00,VWS V14.01,2013-04-20 10:17:00,
2013-04-20 06:22:00,51.1,50.6,29.72,SSW,205,18.0,23.0,98,0.08,,---,0.26,0.00,VWS V14.01,2013-04-20 10:22:00,
2013-04-20 06:27:00,50.9,50.4,29.73,SSW,211,21.0,23.0,98,0.08,,---,0.26,5.00,VWS V14.01,2013-04-20 10:27:00,
2013-04-20 06:30:00,51.9,51.3,29.72,SW,233,21.0,24.0,98,0.08,,,0.18,0.00,VWS V14.01,2013-04-20 10:30:00,
2013-04-20 06:32:00,50.8,50.3,29.72,SW,214,18.0,21.0,98,0.10,,---,0.28,5.00,VWS V14.01,2013-04-20 10:32:00,
2013-04-20 06:37:00,50.7,50.2,29.73,SW,215,18.0,22.0,98,0.10,,---,0.28,7.00,VWS V14.01,2013-04-20 10:37:00,
2013-04-20 06:42:00,50.6,50.1,29.73,SSW,211,22.0,22.0,98,0.10,,---,0.28,11.00,VWS V14.01,2013-04-20 10:42:00,
2013-04-20 06:45:00,51.5,51.0,29.72,SW,219,17.0,25.0,98,0.08,,,0.20,0.00,VWS V14.01,2013-04-20 10:45:00,
2013-04-20 06:47:00,50.5,50.0,29.73,SW,219,22.0,23.0,98,0.10,,---,0.30,7.00,VWS V14.01,2013-04-20 10:47:00,
2013-04-20 06:52:00,50.3,49.8,29.74,SSW,211,22.0,24.0,98,0.10,,---,0.30,11.00,VWS V14.01,2013-04-20 10:52:00,
2013-04-20 06:57:00,50.1,49.6,29.74,SW,223,20.0,24.0,98,0.12,,---,0.32,7.00,VWS V14.01,2013-04-20 10:57:00,
2013-04-20 07:00:00,50.8,50.3,29.72,SSW,201,16.0,22.0,98,0.08,,,0.22,0.00,VWS V14.01,2013-04-20 11:00:00,
2013-04-20 07:02:00,50.0,49.5,29.75,SW,225,18.0,24.0,98,0.10,,---,0.32,9.00,VWS V14.01,2013-04-20 11:02:00,
2013-04-20 07:07:00,49.9,49.4,29.75,SW,229,21.0,24.0,98,0.10,,---,0.32,12.00,VWS V14.01,2013-04-20 11:07:00,
2013-04-20 07:12:00,49.9,49.4,29.75,SW,229,24.0,24.0,98,0.12,,---,0.34,18.00,VWS V14.01,2013-04-20 11:12:00,
2013-04-20 07:15:00,51.1,50.6,29.71,SSW,203,22.0,24.0,98,0.08,,,0.24,0.00,VWS V14.01,2013-04-20 11:15:00,
2013-04-20 07:17:00,50.0,49.5,29.75,WSW,237,20.0,22.0,98,0.10,,---,0.34,18.00,VWS V14.01,2013-04-20 11:17:00,
2013-04-20 07:22:00,50.2,49.7,29.75,WSW,239,16.0,22.0,98,0.12,,---,0.36,23.00,VWS V14.01,2013-04-20 11:22:00,
2013-04-20 07:27:00,50.5,50.0,29.76,WSW,239,17.0,22.0,98,0.12,,---,0.36,21.00,VWS V14.01,2013-04-20 11:27:00,
2013-04-20 07:30:00,50.8,50.3,29.72,SSW,209,19.0,23.0,98,0.10,,,0.28,5.00,VWS V14.01,2013-04-20 11:30:00,
2013-04-20 07:32:00,50.7,50.2,29.76,WSW,251,15.0,19.0,98,0.08,,---,0.36,21.00,VWS V14.01,2013-04-20 11:32:00,
2013-04-20 07:37:00,51.3,50.8,29.76,West,272,17.0,19.0,98,0.10,,---,0.38,21.00,VWS V14.01,2013-04-20 11:37:00,
2013-04-20 07:42:00,51.8,51.3,29.77,West,266,16.0,20.0,98,0.10,,---,0.38,19.00,VWS V14.01,2013-04-20 11:42:00,
2013-04-20 07:45:00,50.5,50.0,29.73,SSW,211,21.0,23.0,98,0.10,,,0.28,9.00,VWS V14.01,2013-04-20 11:45:00,
2013-04-20 07:47:00,51.8,51.3,29.77,West,274,14.0,16.0,98,0.12,,---,0.40,40.00,VWS V14.01,2013-04-20 11:47:00,
2013-04-20 07:52:00,51.7,51.2,29.77,West,273,14.0,19.0,98,0.12,,---,0.40,28.00,VWS V14.01,2013-04-20 11:52:00,
2013-04-20 07:57:00,51.6,51.1,29.78,West,265,17.0,19.0,98,0.12,,---,0.40,42.00,VWS V14.01,2013-04-20 11:57:00,
2013-04-20 08:00:00,50.0,49.5,29.75,SW,226,23.0,24.0,98,0.12,,,0.32,9.00,VWS V14.01,2013-04-20 12:00:00,
2013-04-20 08:03:00,51.4,50.9,29.78,WNW,296,15.0,15.0,98,0.10,,---,0.42,40.00,VWS V14.01,2013-04-20 12:03:00,
2013-04-20 08:08:00,51.4,50.9,29.79,West,272,10.0,20.0,98,0.10,,---,0.42,37.00,VWS V14.01,2013-04-20 12:08:00,
2013-04-20 08:13:00,51.2,50.7,29.80,West,261,16.0,20.0,98,0.12,,---,0.44,51.00,VWS V14.01,2013-04-20 12:13:00,
2013-04-20 08:15:00,50.0,49.5,29.75,SW,232,18.0,24.0,98,0.12,,,0.34,19.00,VWS V14.01,2013-04-20 12:15:00,
2013-04-20 08:18:00,51.1,50.0,29.80,West,263,15.0,-999.0,97,-99.99,,,0.22,42,weatherlink.com 1.10,2013-04-20 12:18:00,
2013-04-20 08:23:00,51.0,50.2,29.80,West,274,12.0,17.0,97,0.10,,---,0.44,49.00,VWS V14.01,2013-04-20 12:23:00,
2013-04-20 08:28:00,50.9,50.1,29.80,West,277,13.0,17.0,97,0.10,,---,0.44,74.00,VWS V14.01,2013-04-20 12:28:00,
2013-04-20 08:30:00,50.6,50.1,29.76,WSW,246,19.0,22.0,98,0.12,,,0.36,21.00,VWS V14.01,2013-04-20 12:30:00,
2013-04-20 08:33:00,50.8,50.0,29.79,WNW,284,9.0,13.0,97,0.08,,---,0.44,62.00,VWS V14.01,2013-04-20 12:33:00,
2013-04-20 08:38:00,50.8,50.0,29.80,WNW,282,11.0,14.0,97,0.10,,---,0.46,69.00,VWS V14.01,2013-04-20 12:38:00,
2013-04-20 08:43:00,50.8,50.0,29.79,NW,310,6.0,14.0,97,0.10,,---,0.46,72.00,VWS V14.01,2013-04-20 12:43:00,
2013-04-20 08:45:00,51.8,51.3,29.77,West,261,16.0,20.0,98,0.12,,,0.40,21.00,VWS V14.01,2013-04-20 12:45:00,
2013-04-20 08:48:00,50.8,50.0,29.80,WNW,302,7.0,18.0,97,0.06,,---,0.46,114.00,VWS V14.01,2013-04-20 12:48:00,
2013-04-20 08:53:00,50.7,49.9,29.80,WNW,296,11.0,18.0,97,0.06,,---,0.46,153.00,VWS V14.01,2013-04-20 12:53:00,
2013-04-20 08:58:00,50.7,49.6,29.81,WSW,255,6.0,18.0,96,0.06,,---,0.46,130.00,VWS V14.01,2013-04-20 12:58:00,
2013-04-20 09:00:00,51.5,51.0,29.78,West,280,13.0,19.0,98,0.14,,,0.42,42.00,VWS V14.01,2013-04-20 13:00:00,
2013-04-20 09:03:00,50.7,49.6,29.81,West,263,11.0,12.0,96,0.04,,---,0.46,116.00,VWS V14.01,2013-04-20 13:03:00,
2013-04-20 09:08:00,50.6,49.5,29.81,NNW,327,9.0,15.0,96,0.04,,---,0.46,67.00,VWS V14.01,2013-04-20 13:08:00,
2013-04-20 09:13:00,50.3,48.9,29.82,WNW,294,10.0,15.0,95,0.04,,---,0.46,67.00,VWS V14.01,2013-04-20 13:13:00,
2013-04-20 09:15:00,51.1,50.6,29.80,West,274,14.0,20.0,98,0.12,,,0.44,42.00,VWS V14.01,2013-04-20 13:15:00,
2013-04-20 09:18:00,49.7,47.8,29.83,WNW,300,13.0,18.0,93,0.02,,---,0.46,60.00,VWS V14.01,2013-04-20 13:18:00,
2013-04-20 09:23:00,49.3,47.4,29.83,WNW,300,9.0,18.0,93,0.02,,---,0.46,88.00,VWS V14.01,2013-04-20 13:23:00,
2013-04-20 09:28:00,49.0,47.1,29.84,WNW,299,15.0,20.0,93,0.02,,---,0.46,81.00,VWS V14.01,2013-04-20 13:28:00,
2013-04-20 09:30:00,50.8,50.0,29.79,WNW,295,11.0,17.0,97,0.10,,,0.44,83.00,VWS V14.01,2013-04-20 13:30:00,
2013-04-20 09:33:00,48.7,46.8,29.85,WNW,299,13.0,18.0,93,0.02,,---,0.46,81.00,VWS V14.01,2013-04-20 13:33:00,
2013-04-20 09:38:00,48.6,46.7,29.85,NW,317,9.0,19.0,93,0.02,,---,0.46,81.00,VWS V14.01,2013-04-20 13:38:00,
2013-04-20 09:43:00,48.3,46.1,29.84,WNW,302,9.0,19.0,92,0.02,,---,0.46,111.00,VWS V14.01,2013-04-20 13:43:00,
2013-04-20 09:45:00,50.8,50.0,29.80,West,263,12.0,14.0,97,0.10,,,0.46,91.00,VWS V14.01,2013-04-20 13:45:00,
2013-04-20 09:48:00,48.3,46.1,29.85,WNW,290,9.0,12.0,92,0.00,,---,0.46,111.00,VWS V14.01,2013-04-20 13:48:00,
2013-04-20 09:53:00,48.4,45.9,29.86,WNW,302,11.0,16.0,91,0.00,,---,0.46,113.00,VWS V14.01,2013-04-20 13:53:00,
2013-04-20 09:58:00,48.5,46.0,29.85,WNW,289,4.0,16.0,91,0.00,,---,0.46,195.00,VWS V14.01,2013-04-20 13:58:00,
2013-04-20 10:00:00,50.7,49.6,29.81,WNW,283,8.0,18.0,96,0.06,,,0.46,134.00,VWS V14.01,2013-04-20 14:00:00,
2013-04-20 10:03:00,48.5,45.4,29.87,NW,309,6.0,13.0,89,0.00,,---,0.46,137.00,VWS V14.01,2013-04-20 14:03:00,
2013-04-20 10:08:00,48.6,45.5,29.87,WNW,286,10.0,14.0,89,0.00,,---,0.46,146.00,VWS V14.01,2013-04-20 14:08:00,
2013-04-20 10:13:00,48.7,45.0,29.88,West,269,10.0,14.0,87,0.00,,---,0.46,100.00,VWS V14.01,2013-04-20 14:13:00,
2013-04-20 10:15:00,49.9,48.2,29.83,WNW,289,14.0,15.0,94,0.04,,,0.46,63.00,VWS V14.01,2013-04-20 14:15:00,
2013-04-20 10:18:00,48.6,44.6,29.88,West,274,8.0,12.0,86,0.00,,---,0.46,149.00,VWS V14.01,2013-04-20 14:18:00,
2013-04-20 10:23:00,48.7,44.7,29.89,West,259,11.0,12.0,86,0.00,,---,0.46,137.00,VWS V14.01,2013-04-20 14:23:00,
2013-04-20 10:28:00,48.8,44.8,29.90,West,275,14.0,16.0,86,0.00,,---,0.46,148.00,VWS V14.01,2013-04-20 14:28:00,
2013-04-20 10:30:00,48.8,46.6,29.84,NNW,327,9.0,21.0,92,0.02,,,0.46,91.00,VWS V14.01,2013-04-20 14:30:00,
2013-04-20 10:33:00,48.9,45.2,29.90,West,273,4.0,14.0,87,0.00,,---,0.46,139.00,VWS V14.01,2013-04-20 14:33:00,
2013-04-20 10:38:00,49.0,45.3,29.90,WNW,300,4.0,14.0,87,0.00,,---,0.46,197.00,VWS V14.01,2013-04-20 14:38:00,
2013-04-20 10:43:00,49.1,45.4,29.91,West,262,7.0,14.0,87,0.00,,---,0.46,153.00,VWS V14.01,2013-04-20 14:43:00,
2013-04-20 10:45:00,48.3,46.1,29.85,West,281,8.0,19.0,92,0.02,,,0.46,107.00,VWS V14.01,2013-04-20 14:45:00,
2013-04-20 10:48:00,49.2,45.5,29.91,WSW,255,7.0,10.0,87,0.00,,---,0.46,149.00,VWS V14.01,2013-04-20 14:48:00,
2013-04-20 10:53:00,49.2,45.8,29.92,WSW,241,8.0,10.0,88,0.00,,---,0.46,146.00,VWS V14.01,2013-04-20 14:53:00,
2013-04-20 10:58:00,49.2,46.1,29.91,WSW,243,9.0,11.0,89,0.00,,---,0.46,204.00,VWS V14.01,2013-04-20 14:58:00,
2013-04-20 11:00:00,48.5,46.0,29.86,WNW,288,6.0,16.0,91,0.00,,,0.46,183.00,VWS V14.01,2013-04-20 15:00:00,
2013-04-20 11:03:00,49.1,45.7,29.90,WSW,238,10.0,12.0,88,0.00,,---,0.46,202.00,VWS V14.01,2013-04-20 15:03:00,
2013-04-20 11:08:00,49.2,45.5,29.91,WSW,251,12.0,12.0,87,0.00,,---,0.46,197.00,VWS V14.01,2013-04-20 15:08:00,
2013-04-20 11:13:00,49.2,44.9,29.92,WSW,243,12.0,13.0,85,0.00,,---,0.46,253.00,VWS V14.01,2013-04-20 15:13:00,
2013-04-20 11:15:00,48.7,45.0,29.88,WNW,302,9.0,14.0,87,0.00,,,0.46,148.00,VWS V14.01,2013-04-20 15:15:00,
2013-04-20 11:18:00,49.4,44.8,29.91,WSW,245,11.0,13.0,84,0.00,,---,0.46,250.00,VWS V14.01,2013-04-20 15:18:00,
2013-04-20 11:23:00,49.4,44.5,29.91,West,261,12.0,13.0,83,0.00,,---,0.46,292.00,VWS V14.01,2013-04-20 15:23:00,
2013-04-20 11:28:00,49.5,43.9,29.91,WSW,255,13.0,15.0,81,0.00,,---,0.46,353.00,VWS V14.01,2013-04-20 15:28:00,
2013-04-20 11:30:00,48.9,44.9,29.90,West,261,14.0,16.0,86,0.00,,,0.46,156.00,VWS V14.01,2013-04-20 15:30:00,
2013-04-20 11:33:00,49.6,42.7,29.91,WSW,255,11.0,15.0,77,0.00,,---,0.46,374.00,VWS V14.01,2013-04-20 15:33:00,
2013-04-20 11:38:00,49.6,43.0,29.91,WSW,254,13.0,15.0,78,0.00,,---,0.46,381.00,VWS V14.01,2013-04-20 15:38:00,
2013-04-20 11:43:00,49.6,43.4,29.91,WSW,241,13.0,15.0,79,0.00,,---,0.46,355.00,VWS V14.01,2013-04-20 15:43:00,
2013-04-20 11:45:00,49.2,45.5,29.91,West,267,9.0,14.0,87,0.00,,,0.46,120.00,VWS V14.01,2013-04-20 15:45:00,
2013-04-20 11:48:00,49.6,43.4,29.91,WSW,241,9.0,11.0,79,0.00,,---,0.46,308.00,VWS V14.01,2013-04-20 15:48:00,
2013-04-20 11:53:00,49.6,43.4,29.92,WSW,240,11.0,12.0,79,0.00,,---,0.46,336.00,VWS V14.01,2013-04-20 15:53:00,
2013-04-20 11:58:00,49.8,43.6,29.92,WSW,246,11.0,13.0,79,0.00,,---,0.46,424.00,VWS V14.01,2013-04-20 15:58:00,
2013-04-20 12:00:00,49.1,45.7,29.90,SW,236,11.0,11.0,88,0.00,,,0.46,220.00,VWS V14.01,2013-04-20 16:00:00,
2013-04-20 12:03:00,50.1,43.8,29.91,WSW,238,10.0,11.0,79,0.00,,---,0.46,512.00,VWS V14.01,2013-04-20 16:03:00,
2013-04-20 12:08:00,50.2,44.0,29.91,WSW,246,10.0,11.0,79,0.00,,---,0.46,327.00,VWS V14.01,2013-04-20 16:08:00,
2013-04-20 12:13:00,50.4,44.5,29.90,WSW,243,8.0,13.0,80,0.00,,---,0.46,436.00,VWS V14.01,2013-04-20 16:13:00,
2013-04-20 12:15:00,49.3,44.7,29.91,WSW,252,11.0,13.0,84,0.00,,,0.46,251.00,VWS V14.01,2013-04-20 16:15:00,
2013-04-20 12:18:00,50.6,44.3,29.89,WSW,242,8.0,11.0,79,0.00,,---,0.46,533.00,VWS V14.01,2013-04-20 16:18:00,
2013-04-20 12:23:00,50.8,43.9,29.90,West,259,12.0,14.0,77,0.00,,---,0.46,459.00,VWS V14.01,2013-04-20 16:23:00,
2013-04-20 12:28:00,51.2,43.6,29.91,WSW,257,13.0,16.0,75,0.00,,---,0.46,631.00,VWS V14.01,2013-04-20 16:28:00,
2013-04-20 12:30:00,49.5,42.9,29.91,WSW,251,14.0,17.0,78,0.00,,,0.46,374.00,VWS V14.01,2013-04-20 16:30:00,
2013-04-20 12:33:00,51.4,43.0,29.91,WSW,242,14.0,16.0,73,0.00,,---,0.46,461.00,VWS V14.01,2013-04-20 16:33:00,
2013-04-20 12:38:00,51.5,42.8,29.90,West,262,11.0,17.0,72,0.00,,---,0.46,519.00,VWS V14.01,2013-04-20 16:38:00,
2013-04-20 12:43:00,51.7,42.2,29.90,West,262,16.0,17.0,70,0.02,,---,0.48,515.00,VWS V14.01,2013-04-20 16:43:00,
2013-04-20 12:45:00,49.6,43.0,29.91,WSW,242,10.0,15.0,78,0.00,,,0.46,308.00,VWS V14.01,2013-04-20 16:45:00,
2013-04-20 12:48:00,51.9,42.4,29.91,WSW,251,16.0,19.0,70,0.02,,---,0.48,578.00,VWS V14.01,2013-04-20 16:48:00,
2013-04-20 12:53:00,52.1,42.6,29.91,WSW,248,16.0,19.0,70,0.02,,---,0.48,545.00,VWS V14.01,2013-04-20 16:53:00,
2013-04-20 12:58:00,51.8,43.1,29.90,WSW,252,10.0,19.0,72,0.02,,---,0.48,499.00,VWS V14.01,2013-04-20 16:58:00,
2013-04-20 13:00:00,50.0,43.8,29.91,WSW,244,9.0,13.0,79,0.00,,,0.46,659.00,VWS V14.01,2013-04-20 17:00:00,
2013-04-20 13:03:00,51.9,40.5,29.90,West,259,17.0,20.0,65,0.02,,---,0.48,385.00,VWS V14.01,2013-04-20 17:03:00,
2013-04-20 13:08:00,52.2,41.6,29.90,WSW,257,13.0,20.0,67,0.02,,---,0.48,538.00,VWS V14.01,2013-04-20 17:08:00,
2013-04-20 13:13:00,52.4,41.8,29.90,West,261,18.0,20.0,67,0.02,,---,0.48,575.00,VWS V14.01,2013-04-20 17:13:00,
2013-04-20 13:15:00,50.5,44.6,29.91,WSW,244,10.0,13.0,80,0.00,,,0.46,504.00,VWS V14.01,2013-04-20 17:15:00,
2013-04-20 13:19:00,52.5,40.7,29.90,WSW,248,10.0,16.0,64,0.02,,---,0.48,420.00,VWS V14.01,2013-04-20 17:19:00,
2013-04-20 13:24:00,51.1,44.5,29.91,SW,220,17.0,19.0,78,0.02,,---,0.48,691.00,VWS V14.01,2013-04-20 17:24:00,
2013-04-20 13:29:00,50.0,44.7,29.91,SW,227,15.0,21.0,82,0.02,,---,0.48,624.00,VWS V14.01,2013-04-20 17:29:00,
2013-04-20 13:30:00,51.4,43.4,29.91,WSW,242,15.0,17.0,74,0.00,,,0.46,631.00,VWS V14.01,2013-04-20 17:30:00,
2013-04-20 13:34:00,49.3,44.0,29.91,SSW,207,21.0,24.0,82,0.02,,---,0.48,515.00,VWS V14.01,2013-04-20 17:34:00,
2013-04-20 13:39:00,49.0,44.1,29.91,SW,219,19.0,24.0,83,0.02,,---,0.48,506.00,VWS V14.01,2013-04-20 17:39:00,
2013-04-20 13:44:00,49.0,44.1,29.91,SW,222,24.0,24.0,83,0.02,,---,0.48,466.00,VWS V14.01,2013-04-20 17:44:00,
2013-04-20 13:45:00,51.8,42.7,29.90,West,259,13.0,17.0,71,0.02,,,0.48,738.00,VWS V14.01,2013-04-20 17:45:00,
2013-04-20 13:49:00,48.9,44.0,29.91,SW,215,21.0,26.0,83,0.00,,---,0.48,629.00,VWS V14.01,2013-04-20 17:49:00,
2013-04-20 13:54:00,48.8,43.9,29.91,SW,219,24.0,26.0,83,0.00,,---,0.48,499.00,VWS V14.01,2013-04-20 17:54:00,
2013-04-20 13:59:00,48.7,44.1,29.91,SW,215,20.0,26.0,84,0.00,,---,0.48,684.00,VWS V14.01,2013-04-20 17:59:00,
2013-04-20 14:00:00,51.9,42.4,29.90,West,259,20.0,20.0,70,0.02,,,0.48,359.00,VWS V14.01,2013-04-20 18:00:00,
2013-04-20 14:04:00,48.8,43.9,29.91,SSW,205,19.0,25.0,83,0.00,,---,0.48,666.00,VWS V14.01,2013-04-20 18:04:00,
2013-04-20 14:09:00,48.8,44.2,29.91,SSW,210,20.0,25.0,84,0.00,,---,0.48,461.00,VWS V14.01,2013-04-20 18:09:00,
2013-04-20 14:14:00,48.8,44.2,29.91,SSW,200,24.0,25.0,84,0.00,,---,0.48,619.00,VWS V14.01,2013-04-20 18:14:00,
2013-04-20 14:15:00,52.5,40.3,29.90,West,259,14.0,21.0,63,0.02,,,0.48,406.00,VWS V14.01,2013-04-20 18:15:00,
2013-04-20 14:19:00,49.0,44.1,29.92,SW,220,18.0,26.0,83,0.00,,---,0.48,501.00,VWS V14.01,2013-04-20 18:19:00,
2013-04-20 14:24:00,49.0,44.1,29.92,SSW,207,21.0,26.0,83,0.00,,---,0.48,452.00,VWS V14.01,2013-04-20 18:24:00,
2013-04-20 14:29:00,48.8,44.2,29.92,SSW,213,23.0,26.0,84,0.00,,---,0.48,403.00,VWS V14.01,2013-04-20 18:29:00,
2013-04-20 14:30:00,49.7,44.4,29.91,SW,217,24.0,24.0,82,0.02,,,0.48,504.00,VWS V14.01,2013-04-20 18:30:00,
2013-04-20 14:34:00,48.9,44.0,29.92,SSW,212,20.0,23.0,83,0.00,,---,0.48,429.00,VWS V14.01,2013-04-20 18:34:00,
2013-04-20 14:39:00,49.0,44.7,29.92,SSW,198,22.0,23.0,85,0.00,,---,0.48,439.00,VWS V14.01,2013-04-20 18:39:00,
2013-04-20 14:44:00,49.0,44.7,29.92,SW,215,22.0,23.0,85,0.00,,---,0.48,513.00,VWS V14.01,2013-04-20 18:44:00,
2013-04-20 14:45:00,48.9,44.0,29.91,SW,216,24.0,24.0,83,0.02,,,0.48,615.00,VWS V14.01,2013-04-20 18:45:00,
2013-04-20 14:49:00,49.1,44.5,29.92,SSW,212,22.0,24.0,84,0.00,,---,0.48,443.00,VWS V14.01,2013-04-20 18:49:00,
2013-04-20 14:54:00,49.2,44.3,29.92,SSW,211,23.0,24.0,83,0.00,,---,0.48,381.00,VWS V14.01,2013-04-20 18:54:00,
2013-04-20 14:59:00,49.2,44.6,29.93,SSW,200,19.0,24.0,84,0.00,,---,0.48,325.00,VWS V14.01,2013-04-20 18:59:00,
2013-04-20 15:00:00,48.8,44.2,29.91,SSW,211,23.0,26.0,84,0.00,,,0.48,487.00,VWS V14.01,2013-04-20 19:00:00,
2013-04-20 15:04:00,49.0,44.4,29.93,SSW,198,23.0,24.0,84,0.00,,---,0.48,318.00,VWS V14.01,2013-04-20 19:04:00,
2013-04-20 15:09:00,49.0,44.1,29.92,SSW,198,21.0,24.0,83,0.00,,---,0.48,680.00,VWS V14.01,2013-04-20 19:09:00,
2013-04-20 15:14:00,49.0,44.7,29.93,SSW,203,22.0,24.0,85,0.00,,---,0.48,366.00,VWS V14.01,2013-04-20 19:14:00,
2013-04-20 15:15:00,49.0,44.4,29.91,SSW,206,19.0,25.0,84,0.00,,,0.48,666.00,VWS V14.01,2013-04-20 19:15:00,
2013-04-20 15:19:00,48.8,43.9,29.93,SSW,205,19.0,25.0,83,0.00,,---,0.48,512.00,VWS V14.01,2013-04-20 19:19:00,
2013-04-20 15:24:00,48.7,44.1,29.93,SSW,200,20.0,25.0,84,0.00,,---,0.48,327.00,VWS V14.01,2013-04-20 19:24:00,
2013-04-20 15:29:00,48.7,44.1,29.93,SSW,207,21.0,25.0,84,0.00,,---,0.48,339.00,VWS V14.01,2013-04-20 19:29:00,
2013-04-20 15:30:00,48.8,44.2,29.92,SSW,208,23.0,26.0,84,0.00,,,0.48,432.00,VWS V14.01,2013-04-20 19:30:00,
2013-04-20 15:34:00,48.9,44.3,29.94,SSW,213,20.0,22.0,84,0.00,,---,0.48,357.00,VWS V14.01,2013-04-20 19:34:00,
2013-04-20 15:39:00,49.1,44.2,29.94,SSW,207,20.0,22.0,83,0.00,,---,0.48,327.00,VWS V14.01,2013-04-20 19:39:00,
2013-04-20 15:44:00,49.0,44.1,29.94,SSW,202,21.0,23.0,83,0.00,,---,0.48,798.00,VWS V14.01,2013-04-20 19:44:00,
2013-04-20 15:45:00,49.1,44.5,29.92,SSW,209,19.0,23.0,84,0.00,,,0.48,464.00,VWS V14.01,2013-04-20 19:45:00,
2013-04-20 15:49:00,49.2,44.3,29.94,SSW,205,20.0,22.0,83,0.00,,---,0.48,406.00,VWS V14.01,2013-04-20 19:49:00,
2013-04-20 15:54:00,49.2,44.3,29.93,SSW,197,20.0,24.0,83,0.00,,---,0.48,295.00,VWS V14.01,2013-04-20 19:54:00,
2013-04-20 15:59:00,49.1,44.5,29.94,South,191,18.0,24.0,84,0.00,,---,0.48,302.00,VWS V14.01,2013-04-20 19:59:00,
2013-04-20 16:00:00,49.2,44.6,29.93,South,187,20.0,24.0,84,0.00,,,0.48,373.00,VWS V14.01,2013-04-20 20:00:00,
2013-04-20 16:04:00,49.3,44.0,29.94,SSW,210,18.0,23.0,82,0.00,,---,0.48,714.00,VWS V14.01,2013-04-20 20:04:00,
2013-04-20 16:09:00,49.4,43.8,29.94,SSW,209,21.0,23.0,81,0.00,,---,0.48,457.00,VWS V14.01,2013-04-20 20:09:00,
2013-04-20 16:14:00,49.4,44.8,29.95,SSW,198,20.0,24.0,84,0.00,,---,0.48,482.00,VWS V14.01,2013-04-20 20:14:00,
2013-04-20 16:15:00,48.8,44.5,29.93,SSW,198,23.0,24.0,85,0.00,,,0.48,352.00,VWS V14.01,2013-04-20 20:15:00,
2013-04-20 16:19:00,48.7,44.7,29.95,SSW,198,21.0,24.0,86,0.00,,---,0.48,230.00,VWS V14.01,2013-04-20 20:19:00,
2013-04-20 16:24:00,48.5,44.8,29.95,SSW,203,24.0,24.0,87,0.00,,---,0.48,415.00,VWS V14.01,2013-04-20 20:24:00,
2013-04-20 16:29:00,48.4,44.7,29.95,SSW,209,22.0,24.0,87,0.00,,---,0.48,267.00,VWS V14.01,2013-04-20 20:29:00,
2013-04-20 16:30:00,48.7,44.1,29.93,SSW,209,17.0,25.0,84,0.00,,,0.48,366.00,VWS V14.01,2013-04-20 20:30:00,
2013-04-20 16:34:00,48.1,44.4,29.95,SSW,213,24.0,26.0,87,0.00,,---,0.48,251.00,VWS V14.01,2013-04-20 20:34:00,
2013-04-20 16:39:00,48.0,44.9,29.95,SSW,211,20.0,26.0,89,0.00,,---,0.48,227.00,VWS V14.01,2013-04-20 20:39:00,
2013-04-20 16:44:00,48.0,44.9,29.95,SSW,209,18.0,26.0,89,0.00,,---,0.48,199.00,VWS V14.01,2013-04-20 20:44:00,
2013-04-20 16:45:00,49.2,44.3,29.94,SSW,207,19.0,23.0,83,0.00,,,0.48,742.00,VWS V14.01,2013-04-20 20:45:00,
2013-04-20 16:49:00,48.1,45.3,29.96,SSW,207,22.0,23.0,90,0.00,,---,0.48,320.00,VWS V14.01,2013-04-20 20:49:00,
2013-04-20 16:54:00,48.2,45.4,29.96,SSW,210,19.0,24.0,90,0.00,,---,0.48,218.00,VWS V14.01,2013-04-20 20:54:00,
2013-04-20 16:59:00,48.3,45.5,29.97,SW,215,20.0,24.0,90,0.00,,---,0.48,227.00,VWS V14.01,2013-04-20 20:59:00,
2013-04-20 17:00:00,49.1,44.2,29.94,SSW,207,23.0,24.0,83,0.00,,,0.48,329.00,VWS V14.01,2013-04-20 21:00:00,
2013-04-20 17:04:00,48.3,45.2,29.97,SW,216,17.0,23.0,89,0.00,,---,0.48,174.00,VWS V14.01,2013-04-20 21:04:00,
2013-04-20 17:09:00,48.3,45.2,29.97,SSW,210,18.0,23.0,89,0.00,,---,0.48,211.00,VWS V14.01,2013-04-20 21:09:00,
2013-04-20 17:14:00,48.5,45.1,29.97,SW,219,17.0,23.0,88,0.00,,---,0.48,216.00,VWS V14.01,2013-04-20 21:14:00,
2013-04-20 17:15:00,49.1,44.8,29.95,SSW,202,19.0,25.0,85,0.00,,,0.48,413.00,VWS V14.01,2013-04-20 21:15:00,
2013-04-20 17:19:00,48.6,45.2,29.98,SW,221,18.0,18.0,88,0.00,,---,0.48,185.00,VWS V14.01,2013-04-20 21:19:00,
2013-04-20 17:24:00,48.7,45.0,29.98,SW,215,16.0,19.0,87,0.00,,---,0.48,167.00,VWS V14.01,2013-04-20 21:24:00,
2013-04-20 17:29:00,48.7,45.3,29.98,SW,222,16.0,19.0,88,0.00,,---,0.48,288.00,VWS V14.01,2013-04-20 21:29:00,
2013-04-20 17:30:00,48.3,44.6,29.95,SSW,205,24.0,24.0,87,0.00,,,0.48,316.00,VWS V14.01,2013-04-20 21:30:00,
2013-04-20 17:34:00,48.9,45.2,29.98,SW,221,17.0,17.0,87,0.00,,---,0.48,160.00,VWS V14.01,2013-04-20 21:34:00,
2013-04-20 17:39:00,49.1,44.5,29.99,SW,221,19.0,20.0,84,0.00,,---,0.48,216.00,VWS V14.01,2013-04-20 21:39:00,
2013-04-20 17:44:00,49.6,44.3,29.99,SW,223,17.0,22.0,82,0.00,,---,0.48,260.00,VWS V14.01,2013-04-20 21:44:00,
2013-04-20 17:45:00,48.0,44.9,29.95,SW,215,23.0,26.0,89,0.00,,,0.48,244.00,VWS V14.01,2013-04-20 21:45:00,
2013-04-20 17:49:00,49.9,43.7,29.99,SW,223,19.0,21.0,79,0.00,,---,0.48,137.00,VWS V14.01,2013-04-20 21:49:00,
2013-04-20 17:54:00,50.1,43.5,29.99,SW,225,18.0,22.0,78,0.00,,---,0.48,135.00,VWS V14.01,2013-04-20 21:54:00,
2013-04-20 17:59:00,50.3,43.4,29.99,SW,222,20.0,24.0,77,0.00,,---,0.48,93.00,VWS V14.01,2013-04-20 21:59:00,
2013-04-20 18:00:00,48.3,45.2,29.97,SW,219,21.0,24.0,89,0.00,,,0.48,186.00,VWS V14.01,2013-04-20 22:00:00,
2013-04-20 18:04:00,50.2,42.6,29.99,SSW,212,21.0,25.0,75,0.00,,---,0.48,104.00,VWS V14.01,2013-04-20 22:04:00,
2013-04-20 18:09:00,50.1,42.8,29.99,SW,221,22.0,25.0,76,0.00,,---,0.48,76.00,VWS V14.01,2013-04-20 22:09:00,
2013-04-20 18:14:00,50.0,43.1,30.00,SW,227,19.0,25.0,77,0.00,,---,0.48,76.00,VWS V14.01,2013-04-20 22:14:00,
2013-04-20 18:15:00,48.5,45.1,29.98,SW,216,14.0,23.0,88,0.00,,,0.48,165.00,VWS V14.01,2013-04-20 22:15:00,
2013-04-20 18:19:00,49.9,43.0,30.00,SW,222,20.0,24.0,77,0.00,,---,0.48,72.00,VWS V14.01,2013-04-20 22:19:00,
2013-04-20 18:24:00,49.9,43.7,30.00,SW,221,20.0,24.0,79,0.00,,---,0.48,62.00,VWS V14.01,2013-04-20 22:24:00,
2013-04-20 18:29:00,49.9,43.7,30.01,SW,228,15.0,24.0,79,0.00,,---,0.48,60.00,VWS V14.01,2013-04-20 22:29:00,
2013-04-20 18:30:00,48.8,45.1,29.98,SSW,211,14.0,19.0,87,0.00,,,0.48,163.00,VWS V14.01,2013-04-20 22:30:00,
2013-04-20 18:34:00,50.0,44.1,30.01,SW,229,15.0,18.0,80,0.00,,---,0.48,60.00,VWS V14.01,2013-04-20 22:34:00,
2013-04-20 18:39:00,50.2,44.6,30.01,SW,231,14.0,18.0,81,0.00,,---,0.48,74.00,VWS V14.01,2013-04-20 22:39:00,
2013-04-20 18:44:00,50.3,44.7,30.01,WSW,237,14.0,18.0,81,0.00,,---,0.48,65.00,VWS V14.01,2013-04-20 22:44:00,
2013-04-20 18:45:00,49.9,44.0,29.99,SW,223,19.0,22.0,80,0.00,,,0.48,139.00,VWS V14.01,2013-04-20 22:45:00,
2013-04-20 18:49:00,50.3,44.7,30.01,WSW,238,14.0,15.0,81,0.00,,---,0.48,40.00,VWS V14.01,2013-04-20 22:49:00,
2013-04-20 18:54:00,50.5,44.6,30.01,SW,229,12.0,15.0,80,0.00,,---,0.48,42.00,VWS V14.01,2013-04-20 22:54:00,
2013-04-20 18:59:00,50.5,44.6,30.01,SW,231,11.0,15.0,80,0.00,,---,0.48,39.00,VWS V14.01,2013-04-20 22:59:00,
2013-04-20 19:00:00,50.3,42.7,29.99,SW,221,22.0,24.0,75,0.00,,,0.48,97.00,VWS V14.01,2013-04-20 23:00:00,
2013-04-20 19:04:00,50.5,44.9,30.02,SW,233,12.0,13.0,81,0.00,,---,0.48,23.00,VWS V14.01,2013-04-20 23:04:00,
2013-04-20 19:09:00,50.5,45.2,30.02,SW,229,13.0,14.0,82,0.00,,---,0.48,19.00,VWS V14.01,2013-04-20 23:09:00,
2013-04-20 19:14:00,50.5,44.9,30.02,SW,229,13.0,14.0,81,0.00,,---,0.48,19.00,VWS V14.01,2013-04-20 23:14:00,
2013-04-20 19:15:00,50.0,43.1,30.00,SW,234,20.0,25.0,77,0.00,,,0.48,70.00,VWS V14.01,2013-04-20 23:15:00,
2013-04-20 19:19:00,50.6,44.7,30.03,SW,227,14.0,16.0,80,0.00,,---,0.48,11.00,VWS V14.01,2013-04-20 23:19:00,
2013-04-20 19:24:00,50.5,44.2,30.03,SW,229,13.0,16.0,79,0.00,,---,0.48,7.00,VWS V14.01,2013-04-20 23:24:00,
2013-04-20 19:29:00,50.6,44.0,30.03,SW,232,14.0,16.0,78,0.00,,---,0.48,7.00,VWS V14.01,2013-04-20 23:29:00,
2013-04-20 19:30:00,50.0,44.1,30.01,SW,230,17.0,24.0,80,0.00,,,0.48,56.00,VWS V14.01,2013-04-20 23:30:00,
2013-04-20 19:34:00,50.6,43.7,30.03,SW,231,12.0,14.0,77,0.00,,---,0.48,5.00,VWS V14.01,2013-04-20 23:34:00,
2013-04-20 19:39:00,50.5,43.6,30.04,SW,228,14.0,15.0,77,0.00,,---,0.48,0.00,VWS V14.01,2013-04-20 23:39:00,
2013-04-20 19:44:00,50.5,43.2,30.04,SW,236,15.0,15.0,76,0.00,,---,0.48,0.00,VWS V14.01,2013-04-20 23:44:00,
2013-04-20 19:45:00,50.3,44.7,30.01,SW,233,15.0,18.0,81,0.00,,,0.48,51.00,VWS V14.01,2013-04-20 23:45:00,
2013-04-20 19:49:00,50.5,43.2,30.05,SW,236,13.0,14.0,76,0.00,,---,0.48,0.00,VWS V14.01,2013-04-20 23:49:00,
2013-04-20 19:54:00,50.5,42.9,30.05,SW,230,14.0,15.0,75,0.00,,---,0.48,0.00,VWS V14.01,2013-04-20 23:54:00,
2013-04-20 19:59:00,50.5,42.9,30.05,WSW,237,16.0,16.0,75,0.00,,---,0.48,0.00,VWS V14.01,2013-04-20 23:59:00,
2013-04-20 20:00:00,50.5,44.9,30.01,SW,233,11.0,15.0,81,0.00,,,0.48,26.00,VWS V14.01,2013-04-21 00:00:00,
2013-04-20 20:04:00,50.5,41.8,30.05,SW,231,16.0,19.0,72,0.00,,---,0.48,0.00,VWS V14.01,2013-04-21 00:04:00,
2013-04-20 20:09:00,50.5,42.2,30.06,SW,230,16.0,19.0,73,0.00,,---,0.48,0.00,VWS V14.01,2013-04-21 00:09:00,
2013-04-20 20:14:00,50.5,42.2,30.07,SW,236,14.0,19.0,73,0.00,,---,0.48,0.00,VWS V14.01,2013-04-21 00:14:00,
2013-04-20 20:15:00,50.6,45.0,30.02,SW,229,13.0,15.0,81,0.00,,,0.48,14.00,VWS V14.01,2013-04-21 00:15:00,
2013-04-20 20:19:00,50.6,41.9,30.07,WSW,240,16.0,16.0,72,0.00,,---,0.48,0.00,VWS V14.01,2013-04-21 00:19:00,
2013-04-20 20:24:00,50.7,41.7,30.08,WSW,237,17.0,18.0,71,0.00,,---,0.48,0.00,VWS V14.01,2013-04-21 00:24:00,
2013-04-20 20:29:00,50.9,40.7,30.08,WSW,241,15.0,19.0,68,0.00,,---,0.48,0.00,VWS V14.01,2013-04-21 00:29:00,
2013-04-20 20:30:00,50.6,44.0,30.03,SW,232,11.0,16.0,78,0.00,,,0.48,7.00,VWS V14.01,2013-04-21 00:30:00,
2013-04-20 20:34:00,51.0,41.9,30.09,WSW,248,15.0,16.0,71,0.00,,---,0.48,0.00,VWS V14.01,2013-04-21 00:34:00,
2013-04-20 20:39:00,51.0,41.6,30.09,WSW,244,13.0,16.0,70,0.00,,---,0.48,0.00,VWS V14.01,2013-04-21 00:39:00,
2013-04-20 20:44:00,51.0,41.6,30.10,WSW,248,12.0,16.0,70,0.00,,---,0.48,0.00,VWS V14.01,2013-04-21 00:44:00,
2013-04-20 20:49:00,51.0,41.6,30.10,WSW,244,12.0,13.0,70,0.00,,---,0.48,0.00,VWS V14.01,2013-04-21 00:49:00,
2013-04-20 20:54:00,50.9,41.1,30.11,WSW,245,11.0,13.0,69,0.00,,---,0.48,0.00,VWS V14.01,2013-04-21 00:54:00,
2013-04-20 20:59:00,50.9,41.5,30.11,WSW,243,12.0,13.0,70,0.00,,---,0.48,0.00,VWS V14.01,2013-04-21 00:59:00,
2013-04-20 21:00:00,50.4,42.1,30.06,WSW,240,15.0,16.0,73,0.00,,,0.48,0.00,VWS V14.01,2013-04-21 01:00:00,
2013-04-20 21:04:00,50.9,41.5,30.11,SW,232,11.0,14.0,70,0.00,,---,0.48,0.00,VWS V14.01,2013-04-21 01:04:00,
2013-04-20 21:09:00,50.8,41.8,30.11,WSW,240,11.0,14.0,71,0.00,,---,0.48,0.00,VWS V14.01,2013-04-21 01:09:00,
2013-04-20 21:14:00,50.6,41.6,30.11,WSW,244,12.0,14.0,71,0.00,,---,0.48,0.00,VWS V14.01,2013-04-21 01:14:00,
2013-04-20 21:15:00,50.5,42.2,30.07,WSW,239,15.0,19.0,73,0.00,,,0.48,0.00,VWS V14.01,2013-04-21 01:15:00,
2013-04-20 21:19:00,50.5,41.8,30.12,SW,231,13.0,14.0,72,0.00,,---,0.48,0.00,VWS V14.01,2013-04-21 01:19:00,
2013-04-20 21:24:00,50.3,42.0,30.12,WSW,237,15.0,15.0,73,0.00,,---,0.48,0.00,VWS V14.01,2013-04-21 01:24:00,
2013-04-20 21:29:00,50.1,41.8,30.12,SW,236,12.0,15.0,73,0.00,,---,0.48,0.00,VWS V14.01,2013-04-21 01:29:00,
2013-04-20 21:30:00,51.0,41.6,30.09,WSW,241,15.0,19.0,70,0.00,,,0.48,0.00,VWS V14.01,2013-04-21 01:30:00,
2013-04-20 21:34:00,50.0,41.7,30.12,SW,236,14.0,15.0,73,0.00,,---,0.48,0.00,VWS V14.01,2013-04-21 01:34:00,
2013-04-20 21:39:00,49.9,41.6,30.12,WSW,237,14.0,16.0,73,0.00,,---,0.48,0.00,VWS V14.01,2013-04-21 01:39:00,
2013-04-20 21:44:00,49.8,41.5,30.13,WSW,243,12.0,16.0,73,0.00,,---,0.48,0.00,VWS V14.01,2013-04-21 01:44:00,
2013-04-20 21:45:00,51.0,41.6,30.10,WSW,247,12.0,16.0,70,0.00,,,0.48,0.00,VWS V14.01,2013-04-21 01:45:00,
2013-04-20 21:49:00,49.8,41.9,30.13,WSW,242,11.0,12.0,74,0.00,,---,0.48,0.00,VWS V14.01,2013-04-21 01:49:00,
2013-04-20 21:54:00,49.8,41.9,30.13,West,260,10.0,12.0,74,0.00,,---,0.48,0.00,VWS V14.01,2013-04-21 01:54:00,
2013-04-20 21:59:00,49.8,41.9,30.14,West,268,11.0,12.0,74,0.00,,---,0.48,0.00,VWS V14.01,2013-04-21 01:59:00,
2013-04-20 22:00:00,50.9,41.1,30.11,WSW,242,13.0,13.0,69,0.00,,,0.48,0.00,VWS V14.01,2013-04-21 02:00:00,
2013-04-20 22:04:00,49.9,42.3,30.14,West,264,8.0,11.0,75,0.00,,---,0.48,0.00,VWS V14.01,2013-04-21 02:04:00,
2013-04-20 22:09:00,49.9,42.0,30.14,West,263,10.0,11.0,74,0.00,,---,0.48,0.00,VWS V14.01,2013-04-21 02:09:00,
2013-04-20 22:14:00,49.8,42.2,30.15,West,266,6.0,11.0,75,0.00,,---,0.48,0.00,VWS V14.01,2013-04-21 02:14:00,
2013-04-20 22:15:00,50.6,41.2,30.11,SW,223,13.0,14.0,70,0.00,,,0.48,0.00,VWS V14.01,2013-04-21 02:15:00,
2013-04-20 22:19:00,49.7,41.4,30.16,West,277,6.0,9.0,73,0.00,,---,0.48,0.00,VWS V14.01,2013-04-21 02:19:00,
2013-04-20 22:24:00,49.6,41.0,30.16,WNW,284,4.0,9.0,72,0.00,,---,0.48,0.00,VWS V14.01,2013-04-21 02:24:00,
2013-04-20 22:29:00,49.5,40.1,30.16,NW,309,5.0,9.0,70,0.00,,---,0.48,0.00,VWS V14.01,2013-04-21 02:29:00,
2013-04-20 22:30:00,50.1,42.2,30.12,WSW,248,14.0,15.0,74,0.00,,,0.48,0.00,VWS V14.01,2013-04-21 02:30:00,
2013-04-20 22:34:00,49.4,40.0,30.17,WNW,302,6.0,7.0,70,0.00,,---,0.48,0.00,VWS V14.01,2013-04-21 02:34:00,
2013-04-20 22:39:00,49.4,38.1,30.17,NW,319,4.0,9.0,65,0.00,,---,0.48,0.00,VWS V14.01,2013-04-21 02:39:00,
2013-04-20 22:44:00,49.6,38.3,30.17,NNW,327,3.0,9.0,65,0.00,,---,0.48,0.00,VWS V14.01,2013-04-21 02:44:00,
2013-04-20 22:45:00,49.9,42.3,30.13,SW,232,9.0,16.0,75,0.00,,,0.48,0.00,VWS V14.01,2013-04-21 02:45:00,
2013-04-20 22:49:00,49.5,38.2,30.17,NNW,338,7.0,7.0,65,0.00,,---,0.48,0.00,VWS V14.01,2013-04-21 02:49:00,
2013-04-20 22:54:00,49.4,38.1,30.17,NNW,334,4.0,10.0,65,0.00,,---,0.48,0.00,VWS V14.01,2013-04-21 02:54:00,
2013-04-20 22:59:00,49.3,38.0,30.17,NW,324,7.0,10.0,65,0.00,,---,0.48,0.00,VWS V14.01,2013-04-21 02:59:00,
2013-04-20 23:00:00,49.8,41.9,30.14,West,266,11.0,12.0,74,0.00,,,0.48,0.00,VWS V14.01,2013-04-21 03:00:00,
2013-04-20 23:04:00,49.2,38.0,30.17,NW,322,5.0,7.0,65,0.00,,---,0.48,0.00,VWS V14.01,2013-04-21 03:04:00,
2013-04-20 23:09:00,49.1,37.5,30.17,NW,314,7.0,9.0,64,0.00,,---,0.48,0.00,VWS V14.01,2013-04-21 03:09:00,
2013-04-20 23:14:00,49.2,36.8,30.18,NW,313,6.0,13.0,62,0.00,,---,0.48,0.00,VWS V14.01,2013-04-21 03:14:00,
2013-04-20 23:15:00,49.7,41.8,30.15,West,280,6.0,11.0,74,0.00,,,0.48,0.00,VWS V14.01,2013-04-21 03:15:00,
2013-04-20 23:19:00,49.2,37.2,30.18,NW,315,5.0,10.0,63,0.00,,---,0.48,0.00,VWS V14.01,2013-04-21 03:19:00,
2013-04-20 23:24:00,49.4,35.3,30.18,NW,312,8.0,13.0,58,0.00,,---,0.48,0.00,VWS V14.01,2013-04-21 03:24:00,
2013-04-20 23:29:00,49.6,34.6,30.19,WNW,302,10.0,14.0,56,0.00,,---,0.48,0.00,VWS V14.01,2013-04-21 03:29:00,
2013-04-20 23:30:00,49.5,40.1,30.16,NW,320,3.0,9.0,70,0.00,,,0.48,0.00,VWS V14.01,2013-04-21 03:30:00,
2013-04-20 23:34:00,49.6,34.1,30.19,NNW,328,8.0,14.0,55,0.00,,---,0.48,0.00,VWS V14.01,2013-04-21 03:34:00,
2013-04-20 23:39:00,49.5,33.6,30.20,WNW,298,8.0,14.0,54,0.00,,---,0.48,0.00,VWS V14.01,2013-04-21 03:39:00,
2013-04-20 23:44:00,49.4,33.5,30.20,WNW,283,13.0,16.0,54,0.00,,---,0.48,0.00,VWS V14.01,2013-04-21 03:44:00,
2013-04-20 23:45:00,49.5,38.2,30.17,NNW,332,3.0,9.0,65,0.00,,,0.48,0.00,VWS V14.01,2013-04-21 03:45:00,
2013-04-20 23:49:00,49.2,34.2,30.21,WNW,298,10.0,11.0,56,0.00,,---,0.48,0.00,VWS V14.01,2013-04-21 03:49:00,
2013-04-20 23:54:00,49.1,34.1,30.21,NW,311,8.0,14.0,56,0.00,,---,0.48,0.00,VWS V14.01,2013-04-21 03:54:00,
2013-04-20 23:59:00,48.9,33.0,30.21,NW,312,11.0,15.0,54,0.00,,---,0.48,0.00,VWS V14.01,2013-04-21 03:59:00,